Location: �clusier
(49.9361°N, 2.7869°E)
Time: 04:14:10
(UTC+00:00)

Cosmos 1943 Rocket - Pass Details

Date: 03 November 2021
Orbit: 811 x 844 km, 71.0° (Epoch: 07 December)

Event Time Altitude Azimuth Distance (km) Brightness Sun altitude
Rises 20:40:25 0° 323° (NW) 3,411 6.1 -41.0°
Reaches altitude 10° 20:43:14 10° 311° (NW) 2,468 5.2 -41.4°
Enters shadow 20:45:29 20° 292° (WNW) 1,868 4.5 -41.7°
